Change the Weather History Date:

Saturday, December 14, 2013

  Actual Average (KABI) Record (KABI)
Temperature  
Mean Temperature 41 °F 45 °F  
Max Temperature 51 °F 57 °F 80 °F (1995)
Min Temperature 31 °F 34 °F 9 °F (1901)
Degree Days  
Heating Degree Days 24 20  
Month to date heating degree days 259  
Since 1 July heating degree days 692  
Cooling Degree Days 0 0  
Month to date cooling degree days 0  
Year to date cooling degree days 2408  
Moisture  
Dew Point 29 °F    
Average Humidity 63    
Maximum Humidity 80    
Minimum Humidity 40    
Precipitation  
Precipitation 0.00 in 0.04 in 0.83 in (1967)
Month to date precipitation 0.56  
Year to date precipitation 24.15  
Sea Level Pressure  
Sea Level Pressure 30.16 in    
Wind  
Wind Speed 12 mph (NNW)    
Max Wind Speed 22 mph    
Max Gust Speed 30 mph    
Visibility 9 miles    
Events      
T = Trace of Precipitation, MM = Missing Value Source: NWS Daily Summary

Daily Weather History Graph

Daily Weather History Graph

Search for Another Location

Airport or City:

Trip Planner

Search our weather history database for the weather conditions in past years. The results will help you decide how hot, cold, wet, or windy it might be!

Date:

Astronomy

Dec. 14, 2013 Rise Set
Actual Time 7:29 AM CST 5:30 PM CST
Civil Twilight 7:02 AM CST 5:58 PM CST
Nautical Twilight 6:31 AM CST 6:28 PM CST
Astronomical Twilight 6:01 AM CST 6:58 PM CST
Moon 3:48 PM CST (12/14) 4:57 AM CST (12/14)
Length of Visible Light 10h 55m
Length of Day
10h 00m
Waxing Gibbous, 94% of the Moon is Illuminated
Dec 14
Waxing Gibbous
Dec 17
Full
Dec 25
Last Quarter
Jan 1
New
Jan 7
First Quarter

Hourly Weather History & Observations

Time (CST) Temp. Windchill Dew Point Humidity Pressure Visibility Wind Dir Wind Speed Gust Speed Precip Events Conditions
12:15 AM 51.8 °F - 39.0 °F 62% 29.82 in 10.0 mi WSW 9.2 mph - N/A   Clear
12:35 AM 50.2 °F - 38.7 °F 65% 29.83 in 10.0 mi West 9.2 mph - N/A   Clear
12:55 AM 50.9 °F - 37.2 °F 59% 29.84 in 10.0 mi West 11.5 mph 18.4 mph N/A   Clear
1:15 AM 50.9 °F - 35.1 °F 55% 29.84 in 10.0 mi West 15.0 mph - N/A   Clear
1:35 AM 49.6 °F - 34.3 °F 56% 29.85 in 10.0 mi WNW 12.7 mph - N/A   Clear
1:55 AM 49.1 °F - 32.4 °F 53% 29.87 in 10.0 mi WNW 12.7 mph - N/A   Clear
2:15 AM 47.7 °F - 32.0 °F 55% 29.87 in 10.0 mi WNW 12.7 mph - N/A   Clear
2:35 AM 46.6 °F - 32.0 °F 57% 29.88 in 10.0 mi NW 13.8 mph 20.7 mph N/A   Clear
2:55 AM 45.5 °F 40.3 °F 33.1 °F 62% 29.89 in 10.0 mi NW 10.4 mph 17.3 mph N/A   Clear
3:15 AM 45.1 °F 39.9 °F 35.1 °F 68% 29.90 in 10.0 mi NW 10.4 mph 18.4 mph N/A   Mostly Cloudy
3:35 AM 44.8 °F 38.7 °F 34.5 °F 67% 29.91 in 10.0 mi NNW 12.7 mph 21.9 mph N/A   Overcast
3:55 AM 44.1 °F 37.7 °F 33.3 °F 66% 29.92 in 10.0 mi NNW 12.7 mph 20.7 mph N/A   Overcast
4:15 AM 42.6 °F 35.6 °F 32.7 °F 68% 29.93 in 10.0 mi NNW 13.8 mph 21.9 mph N/A   Scattered Clouds
4:35 AM 41.9 °F 35.0 °F 32.4 °F 69% 29.95 in 10.0 mi NW 12.7 mph 19.6 mph N/A   Scattered Clouds
4:55 AM 41.9 °F 34.6 °F 32.7 °F 70% 29.96 in 10.0 mi NNW 13.8 mph 21.9 mph N/A   Overcast
5:15 AM 41.7 °F 33.4 °F 32.7 °F 70% 29.96 in 10.0 mi NNW 17.3 mph 28.8 mph N/A   Overcast
5:35 AM 40.8 °F 32.6 °F 32.2 °F 71% 29.98 in 10.0 mi NNW 16.1 mph 27.6 mph N/A   Mostly Cloudy
5:55 AM 40.1 °F 31.6 °F 32.0 °F 73% 29.99 in 10.0 mi NNW 16.1 mph 21.9 mph N/A   Scattered Clouds
6:15 AM 40.3 °F 31.6 °F 32.0 °F 72% 30.02 in 10.0 mi NNW 17.3 mph 27.6 mph N/A   Overcast
6:35 AM 40.1 °F 30.2 °F 32.2 °F 73% 30.04 in 10.0 mi North 21.9 mph 29.9 mph N/A   Overcast
6:55 AM 40.1 °F 31.3 °F 32.9 °F 75% 30.05 in 10.0 mi North 17.3 mph 21.9 mph N/A   Overcast
7:15 AM 39.6 °F 32.1 °F 32.4 °F 75% 30.08 in 10.0 mi NNW 12.7 mph 17.3 mph N/A   Overcast
7:35 AM 39.2 °F 30.5 °F 32.0 °F 75% 30.09 in 10.0 mi NNW 16.1 mph 24.2 mph N/A   Overcast
7:55 AM 38.7 °F 29.8 °F 32.0 °F 77% 30.11 in 7.0 mi NNW 16.1 mph 26.5 mph N/A   Overcast
8:15 AM 37.9 °F 28.2 °F 31.1 °F 76% 30.13 in 7.0 mi NNW 18.4 mph 25.3 mph N/A   Overcast
8:35 AM 37.4 °F 28.5 °F 30.6 °F 76% 30.15 in 7.0 mi NNW 15.0 mph 23.0 mph N/A   Overcast
8:55 AM 36.9 °F 26.5 °F 31.1 °F 80% 30.17 in 7.0 mi NNW 19.6 mph 28.8 mph N/A   Overcast
9:15 AM 36.7 °F 28.0 °F 31.1 °F 80% 30.18 in 5.0 mi NNW 13.8 mph 23.0 mph N/A   Haze
9:35 AM 37.0 °F 28.1 °F 31.1 °F 79% 30.20 in 7.0 mi NNW 15.0 mph 21.9 mph N/A   Overcast
9:55 AM 37.0 °F 28.5 °F 30.9 °F 79% 30.22 in 7.0 mi North 13.8 mph 20.7 mph N/A   Overcast
10:15 AM 36.7 °F 27.6 °F 30.2 °F 77% 30.23 in 7.0 mi North 15.0 mph 24.2 mph N/A   Overcast
10:35 AM 36.9 °F 28.2 °F 30.0 °F 76% 30.25 in 7.0 mi NNW 13.8 mph 20.7 mph N/A   Overcast
10:55 AM 36.7 °F 28.0 °F 29.7 °F 76% 30.25 in 7.0 mi NNW 13.8 mph 21.9 mph N/A   Overcast
11:15 AM 36.9 °F 27.5 °F 29.7 °F 75% 30.25 in 7.0 mi NNW 16.1 mph 20.7 mph N/A   Overcast
11:35 AM 37.0 °F 28.5 °F 29.3 °F 74% 30.25 in 7.0 mi NNW 13.8 mph 19.6 mph N/A   Overcast
11:55 AM 37.6 °F 29.1 °F 29.5 °F 73% 30.26 in 7.0 mi NNW 13.8 mph - N/A   Overcast
12:15 PM 40.1 °F 33.2 °F 29.3 °F 65% 30.25 in 7.0 mi North 11.5 mph 21.9 mph N/A   Mostly Cloudy
12:35 PM 42.3 °F 34.1 °F 27.7 °F 56% 30.25 in 7.0 mi NNW 17.3 mph 23.0 mph N/A   Scattered Clouds
12:55 PM 43.7 °F 36.6 °F 27.7 °F 53% 30.24 in 10.0 mi NNW 15.0 mph 25.3 mph N/A   Clear
1:15 PM 44.6 °F 37.8 °F 27.0 °F 50% 30.24 in 10.0 mi NNW 15.0 mph 20.7 mph N/A   Clear
1:35 PM 45.5 °F 39.2 °F 26.8 °F 48% 30.23 in 10.0 mi NNW 13.8 mph 20.7 mph N/A   Clear
1:55 PM 46.6 °F - 27.3 °F 47% 30.23 in 10.0 mi North 16.1 mph 19.6 mph N/A   Clear
2:15 PM 47.3 °F - 26.8 °F 45% 30.24 in 10.0 mi North 15.0 mph 23.0 mph N/A   Clear
2:35 PM 48.2 °F - 27.1 °F 44% 30.24 in 10.0 mi NNW 12.7 mph 23.0 mph N/A   Clear
2:55 PM 48.6 °F - 27.3 °F 44% 30.24 in 10.0 mi NNW 15.0 mph 20.7 mph N/A   Clear
3:15 PM 49.3 °F - 26.4 °F 41% 30.25 in 10.0 mi NNW 17.3 mph 25.3 mph N/A   Clear
3:35 PM 48.6 °F - 26.4 °F 42% 30.26 in 10.0 mi North 16.1 mph 25.3 mph N/A   Clear
3:55 PM 48.6 °F - 25.3 °F 40% 30.25 in 10.0 mi North 15.0 mph 21.9 mph N/A   Clear
4:15 PM 48.6 °F - 25.3 °F 40% 30.26 in 10.0 mi North 9.2 mph 18.4 mph N/A   Clear
4:35 PM 48.2 °F - 25.5 °F 41% 30.26 in 10.0 mi North 15.0 mph 21.9 mph N/A   Clear
4:55 PM 47.5 °F - 24.8 °F 41% 30.26 in 10.0 mi North 12.7 mph 20.7 mph N/A   Clear
5:15 PM 46.6 °F - 24.8 °F 43% 30.27 in 10.0 mi North 12.7 mph 17.3 mph N/A   Clear
5:35 PM 45.3 °F 42.3 °F 25.2 °F 45% 30.27 in 10.0 mi NNW 5.8 mph - N/A   Clear
5:55 PM 43.9 °F 39.9 °F 25.7 °F 49% 30.28 in 10.0 mi North 6.9 mph - N/A   Clear
6:15 PM 43.0 °F 39.5 °F 26.2 °F 52% 30.29 in 10.0 mi North 5.8 mph - N/A   Clear
6:35 PM 41.9 °F 37.5 °F 26.4 °F 54% 30.29 in 10.0 mi North 6.9 mph - N/A   Clear
6:55 PM 41.5 °F 37.8 °F 26.2 °F 55% 30.30 in 10.0 mi North 5.8 mph - N/A   Clear
7:15 PM 41.4 °F 37.6 °F 26.1 °F 55% 30.30 in 10.0 mi NNE 5.8 mph - N/A   Clear
7:35 PM 40.3 °F 38.2 °F 26.1 °F 57% 30.31 in 10.0 mi NNW 3.5 mph - N/A   Clear
7:55 PM 37.2 °F 34.7 °F 26.6 °F 65% 30.32 in 10.0 mi North 3.5 mph - N/A   Clear
8:15 PM 38.3 °F 33.9 °F 26.2 °F 62% 30.32 in 10.0 mi North 5.8 mph - N/A   Clear
8:35 PM 37.8 °F - 26.6 °F 64% 30.33 in 10.0 mi Calm Calm - N/A   Clear
8:55 PM 36.5 °F - 26.1 °F 66% 30.33 in 10.0 mi Calm Calm - N/A   Clear
9:15 PM 36.0 °F - 26.1 °F 67% 30.33 in 10.0 mi Calm Calm - N/A   Clear
9:35 PM 32.9 °F - 25.9 °F 75% 30.34 in 10.0 mi Calm Calm - N/A   Clear
9:55 PM 32.2 °F - 26.2 °F 79% 30.34 in 10.0 mi Calm Calm - N/A   Clear
10:15 PM 33.3 °F 28.9 °F 26.1 °F 75% 30.34 in 10.0 mi WSW 4.6 mph - N/A   Clear
10:35 PM 32.9 °F 26.7 °F 26.4 °F 77% 30.34 in 10.0 mi SW 6.9 mph - N/A   Clear
10:55 PM 32.7 °F 27.3 °F 26.2 °F 77% 30.35 in 10.0 mi SSW 5.8 mph - N/A   Clear
11:15 PM 32.5 °F 27.1 °F 26.2 °F 78% 30.35 in 10.0 mi SW 5.8 mph - N/A   Clear
11:35 PM 31.8 °F 24.6 °F 26.1 °F 79% 30.35 in 10.0 mi SW 8.1 mph - N/A   Clear
11:55 PM 32.0 °F 26.4 °F 26.4 °F 80% 30.35 in 10.0 mi SW 5.8 mph - N/A   Clear